Year,Month,Day,Hour,Minute,Value (Times are PST for temperature in C)
2016,10,11,00,00,3.60
2016,10,11,00,01,3.60
2016,10,11,00,02,3.60
2016,10,11,00,03,3.60
2016,10,11,00,04,3.50
2016,10,11,00,05,3.50
2016,10,11,00,06,3.50
2016,10,11,00,07,3.50
2016,10,11,00,08,3.50
2016,10,11,00,09,3.50
2016,10,11,00,10,3.50
2016,10,11,00,11,3.50
2016,10,11,00,12,3.50
2016,10,11,00,13,3.50
2016,10,11,00,14,3.60
2016,10,11,00,15,3.60
2016,10,11,00,16,3.60
2016,10,11,00,17,3.60
2016,10,11,00,18,3.60
2016,10,11,00,19,3.60
2016,10,11,00,20,3.60
2016,10,11,00,21,3.60
2016,10,11,00,22,3.60
2016,10,11,00,23,3.60
2016,10,11,00,24,3.60
2016,10,11,00,25,3.50
2016,10,11,00,26,3.50
2016,10,11,00,27,3.50
2016,10,11,00,28,3.50
2016,10,11,00,29,3.50
2016,10,11,00,30,3.50
2016,10,11,00,31,3.50
2016,10,11,00,32,3.50
2016,10,11,00,33,3.50
2016,10,11,00,34,3.50
2016,10,11,00,35,3.50
2016,10,11,00,36,3.50
2016,10,11,00,37,3.50
2016,10,11,00,38,3.50
2016,10,11,00,39,3.50
2016,10,11,00,40,3.50
2016,10,11,00,41,3.50
2016,10,11,00,42,3.40
2016,10,11,00,43,3.50
2016,10,11,00,44,3.40
2016,10,11,00,45,3.40
2016,10,11,00,46,3.40
2016,10,11,00,47,3.40
2016,10,11,00,48,3.40
2016,10,11,00,49,3.30
2016,10,11,00,50,3.30
2016,10,11,00,51,3.30
2016,10,11,00,52,3.30
2016,10,11,00,53,3.30
2016,10,11,00,54,3.30
2016,10,11,00,55,3.30
2016,10,11,00,56,3.30
2016,10,11,00,57,3.30
2016,10,11,00,58,3.30
2016,10,11,00,59,3.30
2016,10,11,01,00,3.30
2016,10,11,01,01,3.30
2016,10,11,01,02,3.40
2016,10,11,01,03,3.40
2016,10,11,01,04,3.40
2016,10,11,01,05,3.40
2016,10,11,01,06,3.40
2016,10,11,01,07,3.40
2016,10,11,01,08,3.40
2016,10,11,01,09,3.40
2016,10,11,01,10,3.40
2016,10,11,01,11,3.40
2016,10,11,01,12,3.40
2016,10,11,01,13,3.40
2016,10,11,01,14,3.40
2016,10,11,01,15,3.30
2016,10,11,01,16,3.30
2016,10,11,01,17,3.30
2016,10,11,01,18,3.30
2016,10,11,01,19,3.30
2016,10,11,01,20,3.30
2016,10,11,01,21,3.30
2016,10,11,01,22,3.40
2016,10,11,01,23,3.40
2016,10,11,01,24,3.40
2016,10,11,01,25,3.40
2016,10,11,01,26,3.40
2016,10,11,01,27,3.40
2016,10,11,01,28,3.40
2016,10,11,01,29,3.30
2016,10,11,01,30,3.30
2016,10,11,01,31,3.30
2016,10,11,01,32,3.30
2016,10,11,01,33,3.30
2016,10,11,01,34,3.30
2016,10,11,01,35,3.30
2016,10,11,01,36,3.30
2016,10,11,01,37,3.40
2016,10,11,01,38,3.40
2016,10,11,01,39,3.40
2016,10,11,01,40,3.30
2016,10,11,01,41,3.30
2016,10,11,01,42,3.30
2016,10,11,01,43,3.30
2016,10,11,01,44,3.30
2016,10,11,01,45,3.30
2016,10,11,01,46,3.30
2016,10,11,01,47,3.30
2016,10,11,01,48,3.20
2016,10,11,01,49,3.20
2016,10,11,01,50,3.20
2016,10,11,01,51,3.20
2016,10,11,01,52,3.20
2016,10,11,01,53,3.20
2016,10,11,01,54,3.20
2016,10,11,01,55,3.20
2016,10,11,01,56,3.20
2016,10,11,01,57,3.20
2016,10,11,01,58,3.10
2016,10,11,01,59,3.10
2016,10,11,02,00,3.10
2016,10,11,02,01,3.10
2016,10,11,02,02,3.10
2016,10,11,02,03,3.10
2016,10,11,02,04,3.10
2016,10,11,02,05,3.10
2016,10,11,02,06,3.10
2016,10,11,02,07,3.10
2016,10,11,02,08,3.00
2016,10,11,02,09,3.00
2016,10,11,02,10,3.00
2016,10,11,02,11,3.00
2016,10,11,02,12,3.00
2016,10,11,02,13,3.00
2016,10,11,02,14,3.00
2016,10,11,02,15,3.00
2016,10,11,02,16,3.00
2016,10,11,02,17,3.00
2016,10,11,02,18,3.00
2016,10,11,02,19,3.00
2016,10,11,02,20,3.00
2016,10,11,02,21,3.00
2016,10,11,02,22,3.00
2016,10,11,02,23,3.00
2016,10,11,02,24,3.10
2016,10,11,02,25,3.10
2016,10,11,02,26,3.10
2016,10,11,02,27,3.10
2016,10,11,02,28,3.10
2016,10,11,02,29,3.10
2016,10,11,02,30,3.10
2016,10,11,02,31,3.10
2016,10,11,02,32,3.10
2016,10,11,02,33,3.10
2016,10,11,02,34,3.10
2016,10,11,02,35,3.10
2016,10,11,02,36,3.20
2016,10,11,02,37,3.20
2016,10,11,02,38,3.20
2016,10,11,02,39,3.20
2016,10,11,02,40,3.10
2016,10,11,02,41,3.10
2016,10,11,02,42,3.10
2016,10,11,02,43,3.00
2016,10,11,02,44,3.00
2016,10,11,02,45,3.00
2016,10,11,02,46,3.00
2016,10,11,02,47,3.00
2016,10,11,02,48,3.00
2016,10,11,02,49,3.00
2016,10,11,02,50,3.00
2016,10,11,02,51,3.00
2016,10,11,02,52,3.00
2016,10,11,02,53,3.00
2016,10,11,02,54,3.00
2016,10,11,02,55,3.00
2016,10,11,02,56,3.00
2016,10,11,02,57,3.00
2016,10,11,02,58,2.90
2016,10,11,02,59,2.90
2016,10,11,03,00,2.90
2016,10,11,03,01,2.90
2016,10,11,03,02,2.90
2016,10,11,03,03,2.90
2016,10,11,03,04,2.90
2016,10,11,03,05,2.90
2016,10,11,03,06,2.90
2016,10,11,03,07,2.90
2016,10,11,03,08,2.90
2016,10,11,03,09,2.90
2016,10,11,03,10,3.00
2016,10,11,03,11,3.00
2016,10,11,03,12,3.00
2016,10,11,03,13,3.00
2016,10,11,03,14,2.90
2016,10,11,03,15,2.90
2016,10,11,03,16,2.90
2016,10,11,03,17,2.90
2016,10,11,03,18,2.90
2016,10,11,03,19,2.90
2016,10,11,03,20,2.90
2016,10,11,03,21,2.80
2016,10,11,03,22,2.80
2016,10,11,03,23,2.80
2016,10,11,03,24,2.80
2016,10,11,03,25,2.80
2016,10,11,03,26,2.80
2016,10,11,03,27,2.80
2016,10,11,03,28,2.80
2016,10,11,03,29,2.80
2016,10,11,03,30,2.80
2016,10,11,03,31,2.80
2016,10,11,03,32,2.80
2016,10,11,03,33,2.80
2016,10,11,03,34,2.70
2016,10,11,03,35,2.70
2016,10,11,03,36,2.70
2016,10,11,03,37,2.70
2016,10,11,03,38,2.70
2016,10,11,03,39,2.70
2016,10,11,03,40,2.70
2016,10,11,03,41,2.60
2016,10,11,03,42,2.60
2016,10,11,03,43,2.60
2016,10,11,03,44,2.60
2016,10,11,03,45,2.60
2016,10,11,03,46,2.60
2016,10,11,03,47,2.60
2016,10,11,03,48,2.60
2016,10,11,03,49,2.60
2016,10,11,03,50,2.60
2016,10,11,03,51,2.60
2016,10,11,03,52,2.60
2016,10,11,03,53,2.60
2016,10,11,03,54,2.70
2016,10,11,03,55,2.60
2016,10,11,03,56,2.60
2016,10,11,03,57,2.60
2016,10,11,03,58,2.60
2016,10,11,03,59,2.60
2016,10,11,04,00,2.60
2016,10,11,04,01,2.70
2016,10,11,04,02,2.70
2016,10,11,04,03,2.70
2016,10,11,04,04,2.70
2016,10,11,04,05,2.70
2016,10,11,04,06,2.70
2016,10,11,04,07,2.70
2016,10,11,04,08,2.60
2016,10,11,04,09,2.60
2016,10,11,04,10,2.60
2016,10,11,04,11,2.60
2016,10,11,04,12,2.60
2016,10,11,04,13,2.60
2016,10,11,04,14,2.60
2016,10,11,04,15,2.60
2016,10,11,04,16,2.60
2016,10,11,04,17,2.60
2016,10,11,04,18,2.60
2016,10,11,04,19,2.50
2016,10,11,04,20,2.50
2016,10,11,04,21,2.50
2016,10,11,04,22,2.50
2016,10,11,04,23,2.50
2016,10,11,04,24,2.40
2016,10,11,04,25,2.50
2016,10,11,04,26,2.50
2016,10,11,04,27,2.50
2016,10,11,04,28,2.50
2016,10,11,04,29,2.40
2016,10,11,04,30,2.40
2016,10,11,04,31,2.40
2016,10,11,04,32,2.40
2016,10,11,04,33,2.30
2016,10,11,04,34,2.30
2016,10,11,04,35,2.30
2016,10,11,04,36,2.30
2016,10,11,04,37,2.30
2016,10,11,04,38,2.30
2016,10,11,04,39,2.30
2016,10,11,04,40,2.30
2016,10,11,04,41,2.30
2016,10,11,04,42,2.30
2016,10,11,04,43,2.30
2016,10,11,04,44,2.30
2016,10,11,04,45,2.30
2016,10,11,04,46,2.30
2016,10,11,04,47,2.30
2016,10,11,04,48,2.30
2016,10,11,04,49,2.30
2016,10,11,04,50,2.30
2016,10,11,04,51,2.30
2016,10,11,04,52,2.30
2016,10,11,04,53,2.30
2016,10,11,04,54,2.30
2016,10,11,04,55,2.30
2016,10,11,04,56,2.30
2016,10,11,04,57,2.20
2016,10,11,04,58,2.20
2016,10,11,04,59,2.20
2016,10,11,05,00,2.20
2016,10,11,05,01,2.20
2016,10,11,05,02,2.30
2016,10,11,05,03,2.30
2016,10,11,05,04,2.30
2016,10,11,05,05,2.20
2016,10,11,05,06,2.20
2016,10,11,05,07,2.20
2016,10,11,05,08,2.20
2016,10,11,05,09,2.20
2016,10,11,05,10,2.20
2016,10,11,05,11,2.20
2016,10,11,05,12,2.20
2016,10,11,05,13,2.20
2016,10,11,05,14,2.20
2016,10,11,05,15,2.20
2016,10,11,05,16,2.20
2016,10,11,05,17,2.20
2016,10,11,05,18,2.20
2016,10,11,05,19,2.20
2016,10,11,05,20,2.20
2016,10,11,05,21,2.20
2016,10,11,05,22,2.20
2016,10,11,05,23,2.20
2016,10,11,05,24,2.20
2016,10,11,05,25,2.20
2016,10,11,05,26,2.20
2016,10,11,05,27,2.20
2016,10,11,05,28,2.20
2016,10,11,05,29,2.10
2016,10,11,05,30,2.10
2016,10,11,05,31,2.10
2016,10,11,05,32,2.10
2016,10,11,05,33,2.10
2016,10,11,05,34,2.10
2016,10,11,05,35,2.10
2016,10,11,05,36,2.00
2016,10,11,05,37,2.00
2016,10,11,05,38,2.00
2016,10,11,05,39,2.00
2016,10,11,05,40,1.90
2016,10,11,05,41,1.90
2016,10,11,05,42,1.90
2016,10,11,05,43,2.00
2016,10,11,05,44,2.00
2016,10,11,05,45,2.00
2016,10,11,05,46,2.00
2016,10,11,05,47,2.00
2016,10,11,05,48,2.10
2016,10,11,05,49,2.10
2016,10,11,05,50,2.10
2016,10,11,05,51,2.10
2016,10,11,05,52,2.10
2016,10,11,05,53,2.10
2016,10,11,05,54,2.10
2016,10,11,05,55,2.10
2016,10,11,05,56,2.10
2016,10,11,05,57,2.10
2016,10,11,05,58,2.10
2016,10,11,05,59,2.00
2016,10,11,06,00,2.00
2016,10,11,06,01,2.00
2016,10,11,06,02,2.00
2016,10,11,06,03,2.00
2016,10,11,06,04,2.00
2016,10,11,06,05,2.00
2016,10,11,06,06,2.00
2016,10,11,06,07,2.00
2016,10,11,06,08,2.00
2016,10,11,06,09,2.10
2016,10,11,06,10,2.10
2016,10,11,06,11,2.10
2016,10,11,06,12,2.10
2016,10,11,06,13,2.10
2016,10,11,06,14,2.20
2016,10,11,06,15,2.20
2016,10,11,06,16,2.20
2016,10,11,06,17,2.20
2016,10,11,06,18,2.20
2016,10,11,06,19,2.20
2016,10,11,06,20,2.20
2016,10,11,06,21,2.20
2016,10,11,06,22,2.20
2016,10,11,06,23,2.20
2016,10,11,06,24,2.20
2016,10,11,06,25,2.20
2016,10,11,06,26,2.20
2016,10,11,06,27,2.20
2016,10,11,06,28,2.20
2016,10,11,06,29,2.20
2016,10,11,06,30,2.20
2016,10,11,06,31,2.20
2016,10,11,06,32,2.20
2016,10,11,06,33,2.20
2016,10,11,06,34,2.20
2016,10,11,06,35,2.20
2016,10,11,06,36,2.20
2016,10,11,06,37,2.20
2016,10,11,06,38,2.20
2016,10,11,06,39,2.20
2016,10,11,06,40,2.20
2016,10,11,06,41,2.20
2016,10,11,06,42,2.10
2016,10,11,06,43,2.10
2016,10,11,06,44,2.10
2016,10,11,06,45,2.10
2016,10,11,06,46,2.10
2016,10,11,06,47,2.20
2016,10,11,06,48,2.10
2016,10,11,06,49,2.10
2016,10,11,06,50,2.10
2016,10,11,06,51,2.10
2016,10,11,06,52,2.10
2016,10,11,06,53,2.10
2016,10,11,06,54,2.10
2016,10,11,06,55,2.10
2016,10,11,06,56,2.10
2016,10,11,06,57,2.10
2016,10,11,06,58,2.10
2016,10,11,06,59,2.10
2016,10,11,07,00,2.10
2016,10,11,07,01,2.10
2016,10,11,07,02,2.10
2016,10,11,07,03,2.20
2016,10,11,07,04,2.20
2016,10,11,07,05,2.20
2016,10,11,07,06,2.20
2016,10,11,07,07,2.20
2016,10,11,07,08,2.20
2016,10,11,07,09,2.20
2016,10,11,07,10,2.20
2016,10,11,07,11,2.20
2016,10,11,07,12,2.20
2016,10,11,07,13,2.20
2016,10,11,07,14,2.20
2016,10,11,07,15,2.20
2016,10,11,07,16,2.20
2016,10,11,07,17,2.20
2016,10,11,07,18,2.20
2016,10,11,07,19,2.20
2016,10,11,07,20,2.20
2016,10,11,07,21,2.20
2016,10,11,07,22,2.20
2016,10,11,07,23,2.20
2016,10,11,07,24,2.20
2016,10,11,07,25,2.20
2016,10,11,07,26,2.20
2016,10,11,07,27,2.20
2016,10,11,07,28,2.20
2016,10,11,07,29,2.20
2016,10,11,07,30,2.20
2016,10,11,07,31,2.20
2016,10,11,07,32,2.30
2016,10,11,07,33,2.30
2016,10,11,07,34,2.30
2016,10,11,07,35,2.30
2016,10,11,07,36,2.40
2016,10,11,07,37,2.40
2016,10,11,07,38,2.40
2016,10,11,07,39,2.30
2016,10,11,07,40,2.30
2016,10,11,07,41,2.30
2016,10,11,07,42,2.30
2016,10,11,07,43,2.30
2016,10,11,07,44,2.30
2016,10,11,07,45,2.30
2016,10,11,07,46,2.30
2016,10,11,07,47,2.30
2016,10,11,07,48,2.30
2016,10,11,07,49,2.30
2016,10,11,07,50,2.30
2016,10,11,07,51,2.30
2016,10,11,07,52,2.30
2016,10,11,07,53,2.30
2016,10,11,07,54,2.30
2016,10,11,07,55,2.30
2016,10,11,07,56,2.30
2016,10,11,07,57,2.30
2016,10,11,07,58,2.30
2016,10,11,07,59,2.30
2016,10,11,08,00,2.40
2016,10,11,08,01,2.40
2016,10,11,08,02,2.40
2016,10,11,08,03,2.50
2016,10,11,08,04,2.50
2016,10,11,08,05,2.60
2016,10,11,08,06,2.60
2016,10,11,08,07,2.70
2016,10,11,08,08,2.80
2016,10,11,08,09,2.80
2016,10,11,08,10,2.90
2016,10,11,08,11,3.00
2016,10,11,08,12,3.00
2016,10,11,08,13,3.10
2016,10,11,08,14,3.10
2016,10,11,08,15,3.20
2016,10,11,08,16,3.20
2016,10,11,08,17,3.20
2016,10,11,08,18,3.30
2016,10,11,08,19,3.30
2016,10,11,08,20,3.30
2016,10,11,08,21,3.40
2016,10,11,08,22,3.40
2016,10,11,08,23,3.50
2016,10,11,08,24,3.50
2016,10,11,08,25,3.60
2016,10,11,08,26,3.70
2016,10,11,08,27,3.70
2016,10,11,08,28,3.80
2016,10,11,08,29,3.90
2016,10,11,08,30,3.90
2016,10,11,08,31,4.00
2016,10,11,08,32,4.00
2016,10,11,08,33,4.10
2016,10,11,08,34,4.10
2016,10,11,08,35,4.20
2016,10,11,08,36,4.20
2016,10,11,08,37,4.20
2016,10,11,08,38,4.20
2016,10,11,08,39,4.30
2016,10,11,08,40,4.30
2016,10,11,08,41,4.30
2016,10,11,08,42,4.30
2016,10,11,08,43,4.40
2016,10,11,08,44,4.40
2016,10,11,08,45,4.50
2016,10,11,08,46,4.50
2016,10,11,08,47,4.60
2016,10,11,08,48,4.60
2016,10,11,08,49,4.70
2016,10,11,08,50,4.80
2016,10,11,08,51,4.90
2016,10,11,08,52,5.00
2016,10,11,08,53,5.10
2016,10,11,08,54,5.20
2016,10,11,08,55,5.20
2016,10,11,08,56,5.30
2016,10,11,08,57,5.30
2016,10,11,08,58,5.40
2016,10,11,08,59,5.50
2016,10,11,09,00,5.60
2016,10,11,09,01,5.70
2016,10,11,09,02,5.70
2016,10,11,09,03,5.80
2016,10,11,09,04,5.80
2016,10,11,09,05,5.80
2016,10,11,09,06,5.90
2016,10,11,09,07,5.90
2016,10,11,09,08,6.00
2016,10,11,09,09,6.00
2016,10,11,09,10,6.00
2016,10,11,09,11,6.10
2016,10,11,09,12,6.10
2016,10,11,09,13,6.20
2016,10,11,09,14,6.30
2016,10,11,09,15,6.40
2016,10,11,09,16,6.50
2016,10,11,09,17,6.50
2016,10,11,09,18,6.60
2016,10,11,09,19,6.70
2016,10,11,09,20,6.80
2016,10,11,09,21,6.90
2016,10,11,09,22,7.00
2016,10,11,09,23,7.10
2016,10,11,09,24,7.20
2016,10,11,09,25,7.20
2016,10,11,09,26,7.30
2016,10,11,09,27,7.40
2016,10,11,09,28,7.50
2016,10,11,09,29,7.60
2016,10,11,09,30,7.70
2016,10,11,09,31,7.70
2016,10,11,09,32,7.80
2016,10,11,09,33,7.80
2016,10,11,09,34,7.80
2016,10,11,09,35,7.90
2016,10,11,09,36,7.90
2016,10,11,09,37,7.90
2016,10,11,09,38,7.90
2016,10,11,09,39,8.00
2016,10,11,09,40,8.00
2016,10,11,09,41,8.10
2016,10,11,09,42,8.10
2016,10,11,09,43,8.20
2016,10,11,09,44,8.20
2016,10,11,09,45,8.30
2016,10,11,09,46,8.30
2016,10,11,09,47,8.30
2016,10,11,09,48,8.40
2016,10,11,09,49,8.50
2016,10,11,09,50,8.60
2016,10,11,09,51,8.60
2016,10,11,09,52,8.70
2016,10,11,09,53,8.90
2016,10,11,09,54,8.90
2016,10,11,09,55,9.00
2016,10,11,09,56,9.00
2016,10,11,09,57,9.10
2016,10,11,09,58,9.10
2016,10,11,09,59,9.20
2016,10,11,10,00,9.20
2016,10,11,10,01,9.20
2016,10,11,10,02,9.20
2016,10,11,10,03,9.30
2016,10,11,10,04,9.30
2016,10,11,10,05,9.40
2016,10,11,10,06,9.40
2016,10,11,10,07,9.50
2016,10,11,10,08,9.60
2016,10,11,10,09,9.60
2016,10,11,10,10,9.70
2016,10,11,10,11,9.80
2016,10,11,10,12,9.80
2016,10,11,10,13,9.90
2016,10,11,10,14,10.00
2016,10,11,10,15,10.10
2016,10,11,10,16,10.10
2016,10,11,10,17,10.10
2016,10,11,10,18,10.10
2016,10,11,10,19,10.10
2016,10,11,10,20,10.10
2016,10,11,10,21,10.10
2016,10,11,10,22,10.10
2016,10,11,10,23,10.10
2016,10,11,10,24,10.10
2016,10,11,10,25,10.10
2016,10,11,10,26,10.10
2016,10,11,10,27,10.10
2016,10,11,10,28,10.10
2016,10,11,10,29,10.20
2016,10,11,10,30,10.20
2016,10,11,10,31,10.30
2016,10,11,10,32,10.30
2016,10,11,10,33,10.40
2016,10,11,10,34,10.40
2016,10,11,10,35,10.50
2016,10,11,10,36,10.60
2016,10,11,10,37,10.60
2016,10,11,10,38,10.60
2016,10,11,10,39,10.60
2016,10,11,10,40,10.60
2016,10,11,10,41,10.60
2016,10,11,10,42,10.60
2016,10,11,10,43,10.70
2016,10,11,10,44,10.70
2016,10,11,10,45,10.70
2016,10,11,10,46,10.70
2016,10,11,10,47,10.70
2016,10,11,10,48,10.70
2016,10,11,10,49,10.70
2016,10,11,10,50,10.70
2016,10,11,10,51,10.70
2016,10,11,10,52,10.70
2016,10,11,10,53,10.70
2016,10,11,10,54,10.70
2016,10,11,10,55,10.70
2016,10,11,10,56,10.70
2016,10,11,10,57,10.70
2016,10,11,10,58,10.70
2016,10,11,10,59,10.70
2016,10,11,11,00,10.70
2016,10,11,11,01,10.70
2016,10,11,11,02,10.60
2016,10,11,11,03,10.60
2016,10,11,11,04,10.60
2016,10,11,11,05,10.50
2016,10,11,11,06,10.50
2016,10,11,11,07,10.40
2016,10,11,11,08,10.40
2016,10,11,11,09,10.30
2016,10,11,11,10,10.30
2016,10,11,11,11,10.30
2016,10,11,11,12,10.20
2016,10,11,11,13,10.20
2016,10,11,11,14,10.20
2016,10,11,11,15,10.20
2016,10,11,11,16,10.20
2016,10,11,11,17,10.20
2016,10,11,11,18,10.10
2016,10,11,11,19,10.10
2016,10,11,11,20,10.10
2016,10,11,11,21,10.10
2016,10,11,11,22,10.20
2016,10,11,11,23,10.20
2016,10,11,11,24,10.20
2016,10,11,11,25,10.10
2016,10,11,11,26,10.10
2016,10,11,11,27,10.10
2016,10,11,11,28,10.10
2016,10,11,11,29,10.10
2016,10,11,11,30,10.10
2016,10,11,11,31,10.10
2016,10,11,11,32,10.10
2016,10,11,11,33,10.10
2016,10,11,11,34,10.20
2016,10,11,11,35,10.20
2016,10,11,11,36,10.20
2016,10,11,11,37,10.30
2016,10,11,11,38,10.30
2016,10,11,11,39,10.30
2016,10,11,11,40,10.30
2016,10,11,11,41,10.40
2016,10,11,11,42,10.40
2016,10,11,11,43,10.40
2016,10,11,11,44,10.40
2016,10,11,11,45,10.40
2016,10,11,11,46,10.40
2016,10,11,11,47,10.40
2016,10,11,11,48,10.40
2016,10,11,11,49,10.30
2016,10,11,11,50,10.30
2016,10,11,11,51,10.30
2016,10,11,11,52,10.30
2016,10,11,11,53,10.20
2016,10,11,11,54,10.20
2016,10,11,11,55,10.20
2016,10,11,11,56,10.20
2016,10,11,11,57,10.30
2016,10,11,11,58,10.30
2016,10,11,11,59,10.30
2016,10,11,12,00,10.30
2016,10,11,12,01,10.30
2016,10,11,12,02,10.30
2016,10,11,12,03,10.30
2016,10,11,12,04,10.30
2016,10,11,12,05,10.30
2016,10,11,12,06,10.40
2016,10,11,12,07,10.40
2016,10,11,12,08,10.40
2016,10,11,12,09,10.40
2016,10,11,12,10,10.40
2016,10,11,12,11,10.40
2016,10,11,12,12,10.40
2016,10,11,12,13,10.50
2016,10,11,12,14,10.50
2016,10,11,12,15,10.50
2016,10,11,12,16,10.60
2016,10,11,12,17,10.60
2016,10,11,12,18,10.60
2016,10,11,12,19,10.70
2016,10,11,12,20,10.70
2016,10,11,12,21,10.80
2016,10,11,12,22,10.80
2016,10,11,12,23,10.90
2016,10,11,12,24,10.90
2016,10,11,12,25,10.90
2016,10,11,12,26,10.90
2016,10,11,12,27,11.00
2016,10,11,12,28,11.00
2016,10,11,12,29,10.90
2016,10,11,12,30,10.90
2016,10,11,12,31,10.90
2016,10,11,12,32,10.90
2016,10,11,12,33,10.90
2016,10,11,12,34,10.90
2016,10,11,12,35,10.90
2016,10,11,12,36,11.00
2016,10,11,12,37,11.00
2016,10,11,12,38,11.00
2016,10,11,12,39,11.10
2016,10,11,12,40,11.10
2016,10,11,12,41,11.10
2016,10,11,12,42,11.10
2016,10,11,12,43,11.10
2016,10,11,12,44,11.20
2016,10,11,12,45,11.20
2016,10,11,12,46,11.20
2016,10,11,12,47,11.30
2016,10,11,12,48,11.30
2016,10,11,12,49,11.30
2016,10,11,12,50,11.30
2016,10,11,12,51,11.30
2016,10,11,12,52,11.30
2016,10,11,12,53,11.40
2016,10,11,12,54,11.50
2016,10,11,12,55,11.60
2016,10,11,12,56,11.70
2016,10,11,12,57,11.70
2016,10,11,12,58,11.80
2016,10,11,12,59,11.80
2016,10,11,13,00,11.80
2016,10,11,13,01,11.80
2016,10,11,13,02,11.80
2016,10,11,13,03,11.90
2016,10,11,13,04,11.90
2016,10,11,13,05,11.90
2016,10,11,13,06,11.90
2016,10,11,13,07,11.90
2016,10,11,13,08,12.00
2016,10,11,13,09,11.90
2016,10,11,13,10,11.90
2016,10,11,13,11,11.90
2016,10,11,13,12,11.90
2016,10,11,13,13,11.90
2016,10,11,13,14,12.00
2016,10,11,13,15,12.00
2016,10,11,13,16,12.00
2016,10,11,13,17,12.00
2016,10,11,13,18,11.90
2016,10,11,13,19,11.90
2016,10,11,13,20,11.90
2016,10,11,13,21,11.90
2016,10,11,13,22,11.90
2016,10,11,13,23,11.90
2016,10,11,13,24,11.80
2016,10,11,13,25,11.70
2016,10,11,13,26,11.60
2016,10,11,13,27,11.60
2016,10,11,13,28,11.60
2016,10,11,13,29,11.70
2016,10,11,13,30,11.70
2016,10,11,13,31,11.80
2016,10,11,13,32,11.80
2016,10,11,13,33,11.80
2016,10,11,13,34,11.90
2016,10,11,13,35,11.90
2016,10,11,13,36,11.90
2016,10,11,13,37,11.90
2016,10,11,13,38,11.90
2016,10,11,13,39,11.90
2016,10,11,13,40,11.90
2016,10,11,13,41,11.90
2016,10,11,13,42,11.90
2016,10,11,13,43,11.80
2016,10,11,13,44,11.80
2016,10,11,13,45,11.80
2016,10,11,13,46,11.80
2016,10,11,13,47,11.80
2016,10,11,13,48,11.80
2016,10,11,13,49,11.80
2016,10,11,13,50,11.90
2016,10,11,13,51,11.90
2016,10,11,13,52,11.90
2016,10,11,13,53,11.90
2016,10,11,13,54,11.90
2016,10,11,13,55,11.90
2016,10,11,13,56,11.80
2016,10,11,13,57,11.80
2016,10,11,13,58,11.80
2016,10,11,13,59,11.80
2016,10,11,14,00,11.80
2016,10,11,14,01,11.90
2016,10,11,14,02,11.90
2016,10,11,14,03,11.90
2016,10,11,14,04,12.00
2016,10,11,14,05,12.10
2016,10,11,14,06,12.10
2016,10,11,14,07,12.10
2016,10,11,14,08,12.20
2016,10,11,14,09,12.20
2016,10,11,14,10,12.20
2016,10,11,14,11,12.20
2016,10,11,14,12,12.30
2016,10,11,14,13,12.30
2016,10,11,14,14,12.30
2016,10,11,14,15,12.40
2016,10,11,14,16,12.40
2016,10,11,14,17,12.40
2016,10,11,14,18,12.30
2016,10,11,14,19,12.20
2016,10,11,14,20,12.20
2016,10,11,14,21,12.20
2016,10,11,14,22,12.30
2016,10,11,14,23,12.30
2016,10,11,14,24,12.30
2016,10,11,14,25,12.30
2016,10,11,14,26,12.30
2016,10,11,14,27,12.40
2016,10,11,14,28,12.40
2016,10,11,14,29,12.30
2016,10,11,14,30,12.30
2016,10,11,14,31,12.20
2016,10,11,14,32,12.20
2016,10,11,14,33,12.20
2016,10,11,14,34,12.10
2016,10,11,14,35,12.10
2016,10,11,14,36,12.00
2016,10,11,14,37,12.00
2016,10,11,14,38,12.00
2016,10,11,14,39,12.10
2016,10,11,14,40,12.10
2016,10,11,14,41,12.10
2016,10,11,14,42,12.20
2016,10,11,14,43,12.30
2016,10,11,14,44,12.30
2016,10,11,14,45,12.40
2016,10,11,14,46,12.30
2016,10,11,14,47,12.40
2016,10,11,14,48,12.40
2016,10,11,14,49,12.30
2016,10,11,14,50,12.30
2016,10,11,14,51,12.30
2016,10,11,14,52,12.30
2016,10,11,14,53,12.40
2016,10,11,14,54,12.40
2016,10,11,14,55,12.30
2016,10,11,14,56,12.30
2016,10,11,14,57,12.30
2016,10,11,14,58,12.20
2016,10,11,14,59,12.20
2016,10,11,15,00,12.20
2016,10,11,15,01,12.20
2016,10,11,15,02,12.20
2016,10,11,15,03,12.20
2016,10,11,15,04,12.10
2016,10,11,15,05,12.10
2016,10,11,15,06,12.10
2016,10,11,15,07,12.10
2016,10,11,15,08,12.20
2016,10,11,15,09,12.20
2016,10,11,15,10,12.30
2016,10,11,15,11,12.30
2016,10,11,15,12,12.40
2016,10,11,15,13,12.40
2016,10,11,15,14,12.50
2016,10,11,15,15,12.60
2016,10,11,15,16,12.60
2016,10,11,15,17,12.60
2016,10,11,15,18,12.50
2016,10,11,15,19,12.50
2016,10,11,15,20,12.50
2016,10,11,15,21,12.50
2016,10,11,15,22,12.50
2016,10,11,15,23,12.60
2016,10,11,15,24,12.50
2016,10,11,15,25,12.40
2016,10,11,15,26,12.30
2016,10,11,15,27,12.30
2016,10,11,15,28,12.20
2016,10,11,15,29,12.20
2016,10,11,15,30,12.20
2016,10,11,15,31,12.20
2016,10,11,15,32,12.20
2016,10,11,15,33,12.20
2016,10,11,15,34,12.20
2016,10,11,15,35,12.30
2016,10,11,15,36,12.30
2016,10,11,15,37,12.40
2016,10,11,15,38,12.40
2016,10,11,15,39,12.50
2016,10,11,15,40,12.50
2016,10,11,15,41,12.40
2016,10,11,15,42,12.40
2016,10,11,15,43,12.30
2016,10,11,15,44,12.20
2016,10,11,15,45,12.20
2016,10,11,15,46,12.20
2016,10,11,15,47,12.20
2016,10,11,15,48,12.20
2016,10,11,15,49,12.20
2016,10,11,15,50,12.30
2016,10,11,15,51,12.30
2016,10,11,15,52,12.30
2016,10,11,15,53,12.30
2016,10,11,15,54,12.30
2016,10,11,15,55,12.20
2016,10,11,15,56,12.30
2016,10,11,15,57,12.30
2016,10,11,15,58,12.30
2016,10,11,15,59,12.30
2016,10,11,16,00,12.30
2016,10,11,16,01,12.20
2016,10,11,16,02,12.20
2016,10,11,16,03,12.20
2016,10,11,16,04,12.20
2016,10,11,16,05,12.20
2016,10,11,16,06,12.20
2016,10,11,16,07,12.20
2016,10,11,16,08,12.30
2016,10,11,16,09,12.30
2016,10,11,16,10,12.30
2016,10,11,16,11,12.30
2016,10,11,16,12,12.30
2016,10,11,16,13,12.30
2016,10,11,16,14,12.30
2016,10,11,16,15,12.30
2016,10,11,16,16,12.30
2016,10,11,16,17,12.30
2016,10,11,16,18,12.30
2016,10,11,16,19,12.30
2016,10,11,16,20,12.30
2016,10,11,16,21,12.30
2016,10,11,16,22,12.30
2016,10,11,16,23,12.30
2016,10,11,16,24,12.30
2016,10,11,16,25,12.30
2016,10,11,16,26,12.30
2016,10,11,16,27,12.30
2016,10,11,16,28,12.30
2016,10,11,16,29,12.30
2016,10,11,16,30,12.30
2016,10,11,16,31,12.30
2016,10,11,16,32,12.30
2016,10,11,16,33,12.30
2016,10,11,16,34,12.30
2016,10,11,16,35,12.30
2016,10,11,16,36,12.30
2016,10,11,16,37,12.40
2016,10,11,16,38,12.40
2016,10,11,16,39,12.40
2016,10,11,16,40,12.40
2016,10,11,16,41,12.40
2016,10,11,16,42,12.40
2016,10,11,16,43,12.50
2016,10,11,16,44,12.50
2016,10,11,16,45,12.50
2016,10,11,16,46,12.40
2016,10,11,16,47,12.40
2016,10,11,16,48,12.30
2016,10,11,16,49,12.30
2016,10,11,16,50,12.20
2016,10,11,16,51,12.20
2016,10,11,16,52,12.20
2016,10,11,16,53,12.20
2016,10,11,16,54,12.20
2016,10,11,16,55,12.20
2016,10,11,16,56,12.20
2016,10,11,16,57,12.10
2016,10,11,16,58,12.10
2016,10,11,16,59,12.10
2016,10,11,17,00,12.10
2016,10,11,17,01,12.10
2016,10,11,17,02,12.20
2016,10,11,17,03,12.20
2016,10,11,17,04,12.20
2016,10,11,17,05,12.20
2016,10,11,17,06,12.30
2016,10,11,17,07,12.30
2016,10,11,17,08,12.30
2016,10,11,17,09,12.30
2016,10,11,17,10,12.40
2016,10,11,17,11,12.40
2016,10,11,17,12,12.40
2016,10,11,17,13,12.40
2016,10,11,17,14,12.40
2016,10,11,17,15,12.40
2016,10,11,17,16,12.40
2016,10,11,17,17,12.40
2016,10,11,17,18,12.40
2016,10,11,17,19,12.40
2016,10,11,17,20,12.30
2016,10,11,17,21,12.30
2016,10,11,17,22,12.30
2016,10,11,17,23,12.30
2016,10,11,17,24,12.30
2016,10,11,17,25,12.30
2016,10,11,17,26,12.30
2016,10,11,17,27,12.30
2016,10,11,17,28,12.30
2016,10,11,17,29,12.30
2016,10,11,17,30,12.20
2016,10,11,17,31,12.20
2016,10,11,17,32,12.20
2016,10,11,17,33,12.20
2016,10,11,17,34,12.20
2016,10,11,17,35,12.20
2016,10,11,17,36,12.20
2016,10,11,17,37,12.20
2016,10,11,17,38,12.20
2016,10,11,17,39,12.20
2016,10,11,17,40,12.20
2016,10,11,17,41,12.10
2016,10,11,17,42,12.10
2016,10,11,17,43,12.00
2016,10,11,17,44,12.00
2016,10,11,17,45,11.90
2016,10,11,17,46,11.90